Weather History for KBFF - May, 2013

Change the Weather History Date:

Saturday, May 18, 2013

  Actual Average Record
Temperature  
Mean Temperature 68 °F 58 °F  
Max Temperature 82 °F 72 °F 96 °F (1934)
Min Temperature 54 °F 44 °F 27 °F (1898)
Degree Days  
Heating Degree Days 0 8  
Month to date heating degree days 165 189  
Since 1 July heating degree days 6215 6482  
Cooling Degree Days 3 1  
Month to date cooling degree days 35 7  
Year to date cooling degree days 35 9  
Growing Degree Days 18 (Base 50)    
Moisture  
Dew Point 51 °F    
Average Humidity 61    
Maximum Humidity 100    
Minimum Humidity 21    
Precipitation  
Precipitation 0.41 in 0.07 in 1.18 in (1915)
Month to date precipitation 0.63 1.27  
Year to date precipitation 3.81 5.11  
Snow  
Snow 0.00 in 0.00 in 11.80 in (1915)
Month to date snowfall 1.0 0.4  
Since 1 July snowfall 42.3 42.0  
Snow Depth 0.00 in    
Sea Level Pressure  
Sea Level Pressure 29.71 in    
Wind  
Wind Speed 7 mph (NW)    
Max Wind Speed 26 mph    
Max Gust Speed 32 mph    
Visibility 10 miles    
Events Rain , Thunderstorm    
T = Trace of Precipitation, MM = Missing Value Source: NWS Daily Summary

Daily Weather History Graph

Daily Weather History Graph

Search for Another Location

Airport or City:

Trip Planner

Search our weather history database for the weather conditions in past years. The results will help you decide how hot, cold, wet, or windy it might be!

Date:

Astronomy

May. 18, 2013 Rise Set
Actual Time 5:31 AM MDT 8:11 PM MDT
Civil Twilight 4:58 AM MDT 8:43 PM MDT
Nautical Twilight 4:18 AM MDT 9:23 PM MDT
Astronomical Twilight 3:32 AM MDT 10:10 PM MDT
Moon 1:10 PM MDT (5/18) 1:31 AM MDT (5/18)
Length of Visible Light 15h 44m
Length of Day
14h 39m
First Quarter, 56% of the Moon is Illuminated
May 18
First Quarter
May 24
Full
May 31
Last Quarter
Jun 8
New
Jun 16
First Quarter

Hourly Weather History & Observations

Time (MDT) Temp. Dew Point Humidity Pressure Visibility Wind Dir Wind Speed Gust Speed Precip Events Conditions
12:53 AM 66.0 °F 55.9 °F 70% 29.62 in 10.0 mi East 6.9 mph - N/A   Clear
1:53 AM 64.0 °F 57.0 °F 78% 29.62 in 10.0 mi East 6.9 mph - N/A   Clear
2:53 AM 64.0 °F 59.0 °F 84% 29.64 in 10.0 mi SSE 4.6 mph - N/A   Clear
3:53 AM 57.9 °F 50.0 °F 75% 29.65 in 10.0 mi WNW 6.9 mph - N/A   Clear
4:33 AM 57.2 °F 51.8 °F 82% 29.80 in 10.0 mi NW 8.1 mph - N/A   Mostly Cloudy
4:53 AM 57.0 °F 51.1 °F 81% 29.65 in 10.0 mi WNW 8.1 mph - N/A   Overcast
5:53 AM 57.0 °F 50.0 °F 77% 29.67 in 10.0 mi West 11.5 mph - N/A   Overcast
6:53 AM 55.9 °F 50.0 °F 80% 29.71 in 10.0 mi West 12.7 mph 18.4 mph N/A   Overcast
7:53 AM 57.0 °F - N/A% 29.74 in 10.0 mi NW 5.8 mph - N/A   Overcast
8:08 AM 57.2 °F - N/A% 29.86 in 10.0 mi Calm Calm - N/A   Overcast
8:27 AM 59.0 °F - N/A% 29.86 in 10.0 mi West 4.6 mph - N/A   Overcast
8:53 AM 63.0 °F - N/A% 29.75 in 10.0 mi West 10.4 mph - N/A   Overcast
9:21 AM 62.6 °F - N/A% 29.87 in 10.0 mi West 5.8 mph - N/A   Overcast
9:38 AM 64.4 °F - N/A% 29.87 in 10.0 mi WNW 6.9 mph - N/A   Overcast
9:53 AM 64.9 °F - N/A% 29.73 in 10.0 mi NW 5.8 mph - N/A   Overcast
10:10 AM 66.2 °F - N/A% 29.87 in 10.0 mi NW 4.6 mph - N/A   Mostly Cloudy
10:53 AM 71.1 °F 57.0 °F 61% 29.70 in 10.0 mi Calm Calm - N/A   Clear
11:53 AM 73.9 °F 55.9 °F 53% 29.70 in 10.0 mi Variable 4.6 mph - N/A   Partly Cloudy
12:53 PM 75.2 °F 53.6 °F 47% 29.81 in 10.0 mi Calm Calm - N/A   Clear
1:53 PM 79.0 °F 50.0 °F 36% 29.65 in 10.0 mi Variable 4.6 mph - N/A   Clear
2:53 PM 81.0 °F 43.0 °F 26% 29.62 in 10.0 mi NW 3.5 mph - N/A   Clear
3:53 PM 80.1 °F 42.1 °F 26% 29.61 in 10.0 mi West 10.4 mph - N/A   Clear
4:53 PM 78.1 °F 35.1 °F 21% 29.59 in 10.0 mi West 10.4 mph - N/A   Clear
5:53 PM 71.1 °F 53.1 °F 53% 29.61 in 10.0 mi NNE 16.1 mph 21.9 mph N/A   Partly Cloudy
6:09 PM 69.8 °F 51.8 °F 53% 29.70 in 10.0 mi NNE 20.7 mph 26.5 mph N/A Thunderstorm Clear
6:24 PM 66.2 °F 46.4 °F 49% 29.71 in 10.0 mi NE 20.7 mph 32.2 mph N/A   Mostly Cloudy
6:44 PM 66.2 °F 44.6 °F 46% 29.74 in 10.0 mi NE 12.7 mph 27.6 mph 0.00 in Rain , Thunderstorm Light Rain
6:53 PM 63.0 °F 48.9 °F 60% 29.67 in 10.0 mi ENE 16.1 mph - 0.00 in Rain , Thunderstorm Light Thunderstorms and Rain
7:53 PM 57.0 °F 57.0 °F 100% 29.76 in 5.0 mi West 11.5 mph 31.1 mph 0.33 in Rain , Thunderstorm Thunderstorms and Rain
8:06 PM 57.2 °F 57.2 °F 100% 29.81 in 5.0 mi NNE 6.9 mph - 0.03 in Rain Rain
8:53 PM 57.9 °F - N/A% 29.73 in 10.0 mi NNE 5.8 mph - 0.07 in Rain Light Rain
9:53 PM 57.9 °F - N/A% 29.70 in 10.0 mi SSW 8.1 mph - 0.01 in   Partly Cloudy
10:53 PM 57.0 °F - N/A% 29.70 in 10.0 mi Calm Calm - N/A   Clear
11:53 PM 55.0 °F 55.0 °F 100% 29.68 in 10.0 mi NW 6.9 mph - N/A   Clear